Weather History for KNRB - December, 2012

Change the Weather History Date:

Saturday, December 8, 2012

  Actual Average Record
Temperature  
Mean Temperature 60 °F -  
Max Temperature 62 °F 65 °F 82 °F (1998)
Min Temperature 57 °F 52 °F 32 °F (2010)
Degree Days  
Heating Degree Days 6    
Growing Degree Days 10 (Base 50)    
Moisture  
Dew Point 58 °F    
Average Humidity 99    
Maximum Humidity 100    
Minimum Humidity 93    
Precipitation  
Precipitation 0.00 in - - ()
Sea Level Pressure  
Sea Level Pressure 30.06 in    
Wind  
Wind Speed 1 mph (East)    
Max Wind Speed 7 mph    
Max Gust Speed -    
Visibility 2 miles    
Events Fog    
Averages and records for this station are not official NWS values.
T = Trace of Precipitation, MM = Missing Value Source: NWS Daily Summary

Daily Weather History Graph

Daily Weather History Graph

Search for Another Location

Airport or City:

Trip Planner

Search our weather history database for the weather conditions in past years. The results will help you decide how hot, cold, wet, or windy it might be!

Date:

Astronomy

Dec. 08, 2012 Rise Set
Actual Time 7:10 AM EST 5:25 PM EST
Civil Twilight 6:44 AM EST 5:51 PM EST
Nautical Twilight 6:14 AM EST 6:21 PM EST
Astronomical Twilight 5:45 AM EST 6:50 PM EST
Moon 1:51 AM EST (12/8) 1:38 PM EST (12/8)
Length of Visible Light 11h 07m
Length of Day
10h 14m
Waning Crescent, 28% of the Moon is Illuminated
Dec 8
Waning Crescent
Dec 13
New
Dec 20
First Quarter
Dec 28
Full
Jan 4
Last Quarter

Hourly Weather History & Observations

Time (EST) Temp. Dew Point Humidity Pressure Visibility Wind Dir Wind Speed Gust Speed Precip Events Conditions
12:02 AM 57.2 °F 57.2 °F 100% 30.03 in 1.8 mi Calm Calm - N/A   Overcast
12:20 AM 57.2 °F 57.2 °F 100% 30.03 in 3.0 mi Calm Calm - N/A   Overcast
12:52 AM 60.1 °F 59.0 °F 96% 30.02 in 7.0 mi East 6.9 mph - N/A   Overcast
1:52 AM 60.1 °F 59.0 °F 96% 30.02 in 10.0 mi East 4.6 mph - N/A   Overcast
2:52 AM 60.1 °F 57.9 °F 93% 30.02 in 10.0 mi Calm Calm - N/A   Overcast
3:43 AM 59.0 °F 57.2 °F 94% 30.02 in 9.0 mi Calm Calm - N/A   Overcast
3:52 AM 59.0 °F 57.9 °F 96% 30.02 in 8.0 mi Calm Calm - N/A   Overcast
4:52 AM 59.0 °F 57.9 °F 96% 30.03 in 6.0 mi Calm Calm - N/A   Overcast
5:06 AM 57.2 °F 57.2 °F 100% 30.03 in 2.5 mi Calm Calm - N/A   Overcast
5:34 AM 59.0 °F 57.2 °F 94% 30.04 in 3.0 mi Calm Calm - N/A   Overcast
5:52 AM 57.9 °F 57.9 °F 100% 30.05 in 2.5 mi Calm Calm - N/A   Overcast
6:03 AM 59.0 °F 57.2 °F 94% 30.05 in 1.8 mi Calm Calm - N/A   Overcast
6:41 AM 57.2 °F 57.2 °F 100% 30.05 in 0.8 mi Calm Calm - N/A   Mist
6:52 AM 57.9 °F 57.9 °F 100% 30.05 in 0.8 mi Calm Calm - N/A   Mist
7:02 AM 57.2 °F 57.2 °F 100% 30.06 in 1.0 mi Calm Calm - N/A   Mist
7:21 AM 57.2 °F 57.2 °F 100% 30.06 in 0.5 mi Calm Calm - N/A Fog Fog
7:33 AM 57.2 °F 57.2 °F 100% 30.07 in 0.2 mi Calm Calm - N/A Fog Fog
7:50 AM 57.2 °F 57.2 °F 100% 30.07 in 0.5 mi Calm Calm - N/A Fog Fog
7:52 AM 57.9 °F 57.9 °F 100% 30.07 in 0.2 mi Calm Calm - N/A Fog Fog
8:44 AM 57.2 °F 57.2 °F 100% 30.08 in 0.5 mi ENE 3.5 mph - N/A Fog Fog
8:52 AM 57.9 °F 57.9 °F 100% 30.08 in 0.5 mi ESE 3.5 mph - N/A Fog Fog
9:52 AM 59.0 °F 59.0 °F 100% 30.09 in 0.5 mi Calm Calm - N/A Fog Fog
10:17 AM 59.0 °F 59.0 °F 100% 30.09 in 0.8 mi East 4.6 mph - N/A   Mist
10:50 AM 59.0 °F 59.0 °F 100% 30.09 in 1.0 mi East 4.6 mph - N/A   Mist
10:52 AM 60.1 °F 59.0 °F 96% 30.09 in 0.8 mi East 4.6 mph - N/A   Mist
11:52 AM 60.1 °F 60.1 °F 100% 30.08 in 0.8 mi Variable 3.5 mph - N/A   Mist
12:39 PM 60.8 °F 60.8 °F 100% 30.05 in 0.5 mi Calm Calm - N/A   Mist
12:52 PM 61.0 °F 60.1 °F 97% 30.05 in 1.0 mi East 3.5 mph - N/A   Overcast
1:52 PM 62.1 °F 60.1 °F 93% 30.04 in 5.0 mi ENE 4.6 mph - N/A   Overcast
2:52 PM 61.0 °F 59.0 °F 93% 30.03 in 5.0 mi East 3.5 mph - N/A   Overcast
3:52 PM 61.0 °F 60.1 °F 97% 30.03 in 3.0 mi East 3.5 mph - N/A   Overcast
4:52 PM 60.1 °F 60.1 °F 100% 30.04 in 0.8 mi ESE 5.8 mph - N/A   Mist
5:52 PM 61.0 °F 61.0 °F 100% 30.04 in 0.8 mi SE 3.5 mph - N/A   Mist
6:52 PM 61.0 °F 61.0 °F 100% 30.06 in 0.5 mi NE 5.8 mph - N/A Fog Fog
7:52 PM 61.0 °F 61.0 °F 100% 30.07 in 0.2 mi NE 4.6 mph - N/A Fog Fog
8:52 PM 61.0 °F 61.0 °F 100% 30.08 in 0.5 mi Calm Calm - N/A Fog Fog
9:52 PM 60.1 °F 60.1 °F 100% 30.09 in 0.2 mi Calm Calm - N/A Fog Fog
10:52 PM 57.9 °F 57.9 °F 100% 30.09 in 0.8 mi Calm Calm - N/A   Mostly Cloudy
11:01 PM 57.2 °F 57.2 °F 100% 30.09 in 0.2 mi Calm Calm - N/A Fog Fog
11:11 PM 57.2 °F 57.2 °F 100% 30.08 in 0.5 mi Calm Calm - N/A Fog Fog
11:28 PM 57.2 °F 57.2 °F 100% 30.08 in 0.8 mi Calm Calm - N/A   Overcast
11:37 PM 59.0 °F 59.0 °F 100% 30.08 in 2.0 mi Calm Calm - N/A   Overcast
11:45 PM 57.2 °F 57.2 °F 100% 30.08 in 8.0 mi Calm Calm - N/A   Mostly Cloudy
11:50 PM 57.2 °F 57.2 °F 100% 30.08 in 1.5 mi Calm Calm - N/A   Scattered Clouds
11:52 PM 57.9 °F 57.9 °F 100% 30.08 in 1.0 mi Calm Calm - N/A   Scattered Clouds